This is the latest recevied weather packets stored in our database for station/object SR7U-1. If no packets are shown the sender has not sent any weather packets the latest 10 day(s).
| Time | Temp. | Humidity | Pressure | Rain* | Wind** | Luminosity | Snow |
|---|---|---|---|---|---|---|---|
| 1777656925 | 17.78° C | 41% | 1023.5 hPa | - | - | - | - |
| 1777656042 | 17.78° C | 42% | 1023.4 hPa | - | - | - | - |
| 1777655325 | 17.78° C | 41% | 1023.4 hPa | - | - | - | - |
| 1777654535 | 17.78° C | 41% | 1023.3 hPa | - | - | - | - |
| 1777653755 | 17.78° C | 40% | 1023.3 hPa | - | - | - | - |
| 1777652990 | 17.78° C | 40% | 1023.4 hPa | - | - | - | - |
| 1777652239 | 17.78° C | 41% | 1023.5 hPa | - | - | - | - |
| 1777651415 | 17.78° C | 40% | 1023.5 hPa | - | - | - | - |
| 1777650573 | 17.78° C | 41% | 1023.5 hPa | - | - | - | - |
| 1777649810 | 18.89° C | 38% | 1023.5 hPa | - | - | - | - |
| 1777649012 | 18.33° C | 38% | 1023.5 hPa | - | - | - | - |
| 1777648229 | 18.33° C | 38% | 1023.5 hPa | - | - | - | - |
| 1777647490 | 17.78° C | 39% | 1023.6 hPa | - | - | - | - |
| 1777646720 | 17.78° C | 39% | 1023.6 hPa | - | - | - | - |
| 1777645920 | 18.33° C | 38% | 1023.7 hPa | - | - | - | - |
| 1777645075 | 18.33° C | 38% | 1023.7 hPa | - | - | - | - |
| 1777644200 | 17.78° C | 40% | 1023.8 hPa | - | - | - | - |
| 1777643390 | 17.78° C | 39% | 1023.8 hPa | - | - | - | - |
| 1777642590 | 17.78° C | 38% | 1023.9 hPa | - | - | - | - |
| 1777641830 | 17.78° C | 38% | 1023.9 hPa | - | - | - | - |
| 1777640970 | 17.78° C | 39% | 1024.1 hPa | - | - | - | - |
| 1777640198 | 18.33° C | 37% | 1024.1 hPa | - | - | - | - |
| 1777639319 | 17.78° C | 39% | 1024.1 hPa | - | - | - | - |
| 1777638562 | 17.78° C | 39% | 1024.3 hPa | - | - | - | - |
| 1777637670 | 17.22° C | 38% | 1024.6 hPa | - | - | - | - |
* Rain since midnight (hover to see other rain measurements)
** Current wind speed in m/s (hover to see current wind gust speed)